Find WHDW 08-06

NORAD ID: 65169 Int'l Des: 2025-174 Owner: ZXW Country: CN Constellation: xingwang operational
LEOCIRCULARPOLARONEWEB_TYPE

リアルタイム位置

3D地球を読み込み中...

WHDW 08-06について

説明を読み込み中...

次回通過

Passes for default location (London). Set your location on the main map for personalized predictions.

高度履歴

Loading altitude history...

軌道要素

1 65169U 25174F 26104.61658353 .00000054 00000-0 91729-4 0 9997
2 65169 86.4902 273.4993 0001901 103.8875 256.2471 13.24435178 32378
Epoch: Apr 14, 2026 • Age: 8 hours

現在のステータス

高度 1190.3 km
速度 7.26 km/s
衛星直下点 -55.43°S, 93.2°W
打ち上げ日 Aug 13, 2025
運用期間 0.6 years
タイプ other

技術仕様

分類 Payload
質量 800.00 kg
乾燥質量 800.00 kg
総質量 800.00 kg
長さ 3.00 m
直径 1.00 m
スパン 10.00 m
形状 Box + 2 Pan
製造者 CAST
バスタイプ Xingwang CL
フェーズステータス In Orbit
所有者/国 ZXW/CN

Most Searched